TimeCDT,TemperatureF,Dew PointF,Humidity,Sea Level PressureIn,VisibilityMPH,Wind Direction,Wind SpeedMPH,Gust SpeedMPH,PrecipitationIn,Events,Conditions,WindDirDegrees,DateUTC
12:15 AM,43.2,43.0,99,29.76,5.0,NW,8.1,-,N/A,,Overcast,310,2013-10-31 05:15:00
12:35 AM,43.2,42.8,99,29.76,5.0,NW,9.2,-,N/A,,Overcast,320,2013-10-31 05:35:00
12:55 AM,43.0,42.8,99,29.75,5.0,NW,5.8,-,N/A,,Overcast,320,2013-10-31 05:55:00
1:15 AM,42.6,42.4,99,29.74,7.0,NNW,4.6,-,N/A,,Overcast,330,2013-10-31 06:15:00
1:35 AM,41.4,41.0,99,29.71,5.0,Calm,Calm,-,N/A,,Scattered Clouds,0,2013-10-31 06:35:00
1:55 AM,40.5,40.1,99,29.71,5.0,NNW,4.6,-,N/A,,Clear,330,2013-10-31 06:55:00
2:15 AM,39.0,38.5,98,29.71,4.0,NW,5.8,-,N/A,,Clear,310,2013-10-31 07:15:00
2:35 AM,39.0,38.8,99,29.72,4.0,WNW,3.5,-,N/A,,Clear,290,2013-10-31 07:35:00
2:55 AM,38.5,38.3,99,29.70,4.0,NW,4.6,-,N/A,,Clear,320,2013-10-31 07:55:00
3:15 AM,39.4,39.2,99,29.71,5.0,Calm,Calm,-,N/A,,Clear,0,2013-10-31 08:15:00
3:35 AM,39.6,39.4,99,29.71,7.0,Calm,Calm,-,N/A,,Clear,0,2013-10-31 08:35:00
3:55 AM,39.6,39.4,99,29.70,5.0,Calm,Calm,-,N/A,,Clear,0,2013-10-31 08:55:00
4:15 AM,39.4,39.2,99,29.70,5.0,Calm,Calm,-,N/A,,Clear,0,2013-10-31 09:15:00
4:35 AM,39.6,39.4,99,29.68,5.0,Calm,Calm,-,N/A,,Clear,0,2013-10-31 09:35:00
4:55 AM,39.4,39.2,99,29.67,5.0,Calm,Calm,-,N/A,,Clear,0,2013-10-31 09:55:00
5:15 AM,39.2,38.8,99,29.67,5.0,Calm,Calm,-,N/A,,Clear,0,2013-10-31 10:15:00
5:35 AM,38.8,38.7,99,29.67,3.0,West,3.5,-,N/A,,Clear,280,2013-10-31 10:35:00
5:55 AM,38.8,38.7,99,29.67,3.0,Calm,Calm,-,N/A,,Clear,0,2013-10-31 10:55:00
6:15 AM,39.2,39.2,100,29.69,5.0,Calm,Calm,-,N/A,,Scattered Clouds,0,2013-10-31 11:15:00
6:35 AM,39.4,39.2,99,29.70,5.0,SW,3.5,-,N/A,,Mostly Cloudy,230,2013-10-31 11:35:00
6:55 AM,39.6,39.4,99,29.69,5.0,Calm,Calm,-,N/A,,Overcast,0,2013-10-31 11:55:00
7:15 AM,39.4,39.2,99,29.65,4.0,Calm,Calm,-,N/A,,Mostly Cloudy,0,2013-10-31 12:15:00
7:35 AM,39.4,39.2,99,29.67,5.0,West,4.6,-,N/A,,Scattered Clouds,270,2013-10-31 12:35:00
7:55 AM,39.6,39.2,99,29.67,5.0,West,4.6,-,N/A,,Mostly Cloudy,260,2013-10-31 12:55:00
8:15 AM,39.6,39.4,99,29.67,5.0,West,4.6,-,N/A,,Mostly Cloudy,280,2013-10-31 13:15:00
8:35 AM,39.7,39.4,99,29.67,4.0,West,5.8,-,N/A,,Scattered Clouds,280,2013-10-31 13:35:00
8:55 AM,39.7,39.4,99,29.67,5.0,West,3.5,-,N/A,,Clear,260,2013-10-31 13:55:00
9:15 AM,40.1,39.6,98,29.67,7.0,SW,3.5,-,N/A,,Clear,220,2013-10-31 14:15:00
9:35 AM,40.1,39.9,99,29.65,7.0,Calm,Calm,-,N/A,,Clear,0,2013-10-31 14:35:00
9:55 AM,40.6,40.1,98,29.65,7.0,SW,3.5,-,N/A,,Clear,230,2013-10-31 14:55:00
10:15 AM,41.7,41.2,98,29.64,7.0,WSW,3.5,-,N/A,,Clear,240,2013-10-31 15:15:00
10:35 AM,42.8,42.3,98,29.64,7.0,WSW,4.6,-,N/A,,Clear,240,2013-10-31 15:35:00
10:55 AM,43.7,42.8,97,29.63,7.0,West,4.6,-,N/A,,Clear,270,2013-10-31 15:55:00
11:15 AM,44.6,43.7,97,29.62,7.0,West,4.6,-,N/A,,Clear,260,2013-10-31 16:15:00
11:35 AM,45.3,44.2,96,29.62,10.0,West,5.8,-,N/A,,Scattered Clouds,270,2013-10-31 16:35:00
11:55 AM,45.5,44.1,95,29.61,10.0,West,5.8,-,N/A,,Mostly Cloudy,280,2013-10-31 16:55:00
12:15 PM,45.7,44.4,95,29.61,10.0,WNW,4.6,-,N/A,,Scattered Clouds,290,2013-10-31 17:15:00
12:35 PM,46.4,44.4,93,29.60,10.0,Calm,Calm,-,N/A,,Scattered Clouds,0,2013-10-31 17:35:00
12:55 PM,48.0,44.6,88,29.59,10.0,WNW,4.6,-,N/A,,Scattered Clouds,300,2013-10-31 17:55:00
1:15 PM,48.9,44.4,84,29.57,10.0,West,5.8,-,N/A,,Clear,270,2013-10-31 18:15:00
1:35 PM,49.5,45.0,84,29.55,10.0,West,5.8,-,N/A,,Clear,280,2013-10-31 18:35:00
1:55 PM,50.9,45.3,81,29.54,10.0,WSW,6.9,-,N/A,,Clear,240,2013-10-31 18:55:00
2:15 PM,51.6,45.9,81,29.53,10.0,SW,6.9,-,N/A,,Clear,230,2013-10-31 19:15:00
2:35 PM,54.0,47.3,78,29.52,10.0,SW,9.2,-,N/A,,Scattered Clouds,220,2013-10-31 19:35:00
2:55 PM,54.7,46.4,74,29.52,10.0,SW,11.5,18.4,N/A,,Mostly Cloudy,230,2013-10-31 19:55:00
3:15 PM,55.4,45.1,68,29.52,10.0,WSW,8.1,11.5,N/A,,Overcast,250,2013-10-31 20:15:00
3:35 PM,54.5,43.9,67,29.52,10.0,West,6.9,-,N/A,,Overcast,270,2013-10-31 20:35:00
3:55 PM,54.9,45.3,70,29.52,10.0,West,5.8,-,N/A,,Overcast,260,2013-10-31 20:55:00
4:15 PM,57.4,45.0,63,29.51,10.0,WSW,5.8,-,N/A,,Scattered Clouds,250,2013-10-31 21:15:00
4:35 PM,57.9,43.2,58,29.51,10.0,WNW,11.5,17.3,N/A,,Mostly Cloudy,300,2013-10-31 21:35:00
4:55 PM,56.5,39.0,52,29.52,10.0,WNW,15.0,19.6,N/A,,Mostly Cloudy,290,2013-10-31 21:55:00
5:15 PM,56.7,39.2,52,29.52,10.0,WNW,10.4,-,N/A,,Scattered Clouds,290,2013-10-31 22:15:00
5:35 PM,55.4,40.3,57,29.52,10.0,West,6.9,-,N/A,,Mostly Cloudy,280,2013-10-31 22:35:00
5:55 PM,55.0,40.1,57,29.52,10.0,West,6.9,-,N/A,,Overcast,270,2013-10-31 22:55:00
6:15 PM,54.7,39.9,58,29.53,10.0,West,6.9,-,N/A,,Overcast,260,2013-10-31 23:15:00
6:35 PM,53.6,37.9,55,29.54,10.0,West,16.1,21.9,N/A,,Scattered Clouds,280,2013-10-31 23:35:00
6:55 PM,51.8,37.4,58,29.54,10.0,West,11.5,-,N/A,,Clear,280,2013-10-31 23:55:00
7:15 PM,50.5,37.4,61,29.54,10.0,WNW,8.1,-,N/A,,Clear,290,2013-11-01 00:15:00
7:35 PM,48.9,37.4,64,29.55,10.0,WNW,5.8,-,N/A,,Clear,290,2013-11-01 00:35:00
7:55 PM,46.9,37.0,68,29.55,10.0,West,4.6,-,N/A,,Clear,270,2013-11-01 00:55:00
8:15 PM,46.2,36.9,70,29.56,10.0,West,4.6,-,N/A,,Clear,260,2013-11-01 01:15:00
8:35 PM,46.8,36.7,68,29.55,10.0,WSW,4.6,-,N/A,,Clear,250,2013-11-01 01:35:00
8:55 PM,46.2,36.5,69,29.56,10.0,WSW,5.8,-,N/A,,Clear,250,2013-11-01 01:55:00
9:15 PM,45.9,36.1,69,29.56,10.0,WSW,6.9,-,N/A,,Clear,250,2013-11-01 02:15:00
9:35 PM,45.5,36.0,69,29.56,10.0,West,8.1,-,N/A,,Clear,260,2013-11-01 02:35:00
9:55 PM,45.0,36.1,71,29.57,10.0,West,6.9,-,N/A,,Clear,260,2013-11-01 02:55:00
10:15 PM,44.8,36.0,71,29.57,10.0,West,6.9,-,N/A,,Clear,270,2013-11-01 03:15:00
10:35 PM,43.2,36.0,76,29.58,10.0,West,6.9,-,N/A,,Clear,270,2013-11-01 03:35:00
10:55 PM,43.9,36.0,74,29.59,10.0,West,8.1,-,N/A,,Clear,270,2013-11-01 03:55:00
11:15 PM,44.6,35.6,71,29.59,10.0,West,9.2,-,N/A,,Clear,260,2013-11-01 04:15:00
11:35 PM,43.9,35.6,73,29.59,10.0,West,6.9,-,N/A,,Clear,270,2013-11-01 04:35:00
11:55 PM,42.8,35.6,76,29.59,10.0,West,8.1,-,N/A,,Clear,270,2013-11-01 04:55:00